Wakefield, VA

3:48 AM EST on December 10, 2019 (GMT -0500)
Wakefield Municipal

Weather History for KAKQ - June, 2019

Change the Weather History Date:

Thursday, June 13, 2019

  Actual Average (WUND) Record (WUND)
Temperature  
Mean Temperature 71 °F -  
Max Temperature 80 °F - - (-1)
Min Temperature 62 °F - - (-1)
Cooling Degree Days 6    
Growing Degree Days 21 (Base 50)    
Moisture  
Dew Point 64 °F    
Average Humidity 85    
Maximum Humidity 94    
Minimum Humidity 52    
Precipitation  
Precipitation 0.48 in - - ()
Sea Level Pressure  
Sea Level Pressure 29.82 in    
Wind  
Wind Speed 5 mph (WSW)    
Max Wind Speed 17 mph    
Max Gust Speed 37 mph    
Visibility 6 miles    
Events Rain    
Averages and records for this station are not official NWS values.
T = Trace of Precipitation, MM = Missing Value Source: NWS Daily Summary

Daily Weather History Graph

Daily Weather History Graph

Search for Another Location

Airport or City:

Astronomy

Jun. 13, 2019 Rise Set
Actual Time 5:47 AM EDT 8:28 PM EDT
Civil Twilight 5:17 AM EDT 8:59 PM EDT
Nautical Twilight 4:38 AM EDT 9:37 PM EDT
Astronomical Twilight 3:55 AM EDT 10:20 PM EDT
Moon 4:46 PM EDT (6/13) 3:25 AM EDT (6/13)
Length of Visible Light 15h 42m
Length of Day
14h 40m
Waxing Gibbous, 85% of the Moon is Illuminated
Jun 13
Waxing Gibbous
Jun 17
Full
Jun 25
Last Quarter
Jul 2
New
Jul 9
First Quarter

Hourly Weather History & Observations

Time (EDT) Temp. Heat Index Dew Point Humidity Pressure Visibility Wind Dir Wind Speed Gust Speed Precip Events Conditions
12:50 AM 66.2 °F - 62.6 °F 88% 29.88 in 8.0 mi ENE 4.6 mph - 0.00 in   Overcast
12:54 AM 66.9 °F - 62.1 °F 84% 29.88 in 6.0 mi East 3.5 mph - 0.00 in Rain Light Rain
1:54 AM 66.9 °F - 64.0 °F 90% 29.83 in 7.0 mi Calm Calm - 0.01 in Rain Light Rain
2:22 AM 66.9 °F - 64.0 °F 90% 29.80 in 2.0 mi Calm Calm - 0.04 in Rain Rain
2:33 AM 66.9 °F - 64.0 °F 90% 29.80 in 3.0 mi ENE 3.5 mph - 0.07 in Rain Light Rain
2:54 AM 66.9 °F - 64.9 °F 93% 29.78 in 7.0 mi East 4.6 mph - 0.07 in Rain Light Rain
3:19 AM 68.0 °F - 66.0 °F 93% 29.77 in 4.0 mi SE 4.6 mph - 0.00 in Rain Light Rain
3:54 AM 70.0 °F - 68.0 °F 93% 29.76 in 5.0 mi South 6.9 mph - 0.00 in Rain Light Rain
4:01 AM 70.0 °F - 68.0 °F 93% 29.77 in 7.0 mi Variable 5.8 mph - 0.00 in Rain Light Rain
4:11 AM 70.0 °F - 68.0 °F 93% 29.76 in 1.8 mi SW 4.6 mph - 0.02 in Rain Heavy Rain
4:29 AM 70.0 °F - 68.0 °F 93% 29.76 in 3.0 mi WSW 3.5 mph - 0.06 in Rain Light Rain
4:45 AM 70.0 °F - 68.0 °F 93% 29.76 in 4.0 mi West 3.5 mph - 0.06 in Rain Light Rain
4:54 AM 69.1 °F - 66.9 °F 93% 29.75 in 4.0 mi Calm Calm - 0.06 in Rain Light Rain
5:12 AM 69.1 °F - 66.9 °F 93% 29.75 in 2.5 mi WNW 3.5 mph - 0.01 in Rain Light Rain
5:24 AM 68.0 °F - 66.0 °F 93% 29.76 in 1.2 mi West 5.8 mph - 0.02 in Rain Light Rain
5:51 AM 66.2 °F - 64.4 °F 94% 29.78 in 2.0 mi Calm Calm - 0.04 in Rain Light Rain
5:54 AM 66.9 °F - 64.9 °F 93% 29.78 in 2.5 mi Variable 4.6 mph - 0.04 in Rain Light Rain
6:11 AM 66.9 °F - 64.9 °F 93% 29.78 in 0.8 mi NW 4.6 mph - 0.00 in Rain Light Rain
6:24 AM 66.2 °F - 64.4 °F 94% 29.78 in 1.5 mi NNW 5.8 mph - N/A Rain Light Rain
6:33 AM 66.0 °F - 64.0 °F 93% 29.78 in 2.0 mi Variable 5.8 mph - 0.01 in Rain Light Rain
6:36 AM 66.0 °F - 64.0 °F 93% 29.78 in 3.0 mi Variable 4.6 mph - 0.01 in   Overcast
6:54 AM 66.0 °F - 64.0 °F 93% 29.78 in 10.0 mi Variable 4.6 mph - 0.01 in   Overcast
7:11 AM 66.0 °F - 64.0 °F 93% 29.78 in 10.0 mi Calm Calm - N/A   Overcast
7:54 AM 66.9 °F - 64.0 °F 90% 29.80 in 10.0 mi Calm Calm - N/A   Overcast
8:20 AM 66.9 °F - 64.0 °F 90% 29.81 in 10.0 mi West 4.6 mph - N/A   Overcast
8:54 AM 68.0 °F - 64.9 °F 90% 29.82 in 6.0 mi Calm Calm - 0.00 in   Overcast
9:04 AM 68.0 °F - 64.9 °F 90% 29.82 in 3.0 mi West 3.5 mph - N/A   Overcast
9:33 AM 69.1 °F - 64.0 °F 84% 29.83 in 10.0 mi WNW 3.5 mph - N/A   Overcast
9:54 AM 69.1 °F - 64.9 °F 87% 29.82 in 4.0 mi Variable 3.5 mph - N/A   Overcast
10:07 AM 70.0 °F - 64.9 °F 84% 29.83 in 4.0 mi Variable 4.6 mph - N/A   Haze
10:17 AM 69.1 °F - 66.0 °F 90% 29.83 in 2.5 mi West 4.6 mph - N/A   Overcast
10:21 AM 69.1 °F - 64.9 °F 87% 29.83 in 1.8 mi Variable 3.5 mph - N/A   Overcast
10:29 AM 70.0 °F - 66.0 °F 87% 29.83 in 2.0 mi Variable 3.5 mph - 0.00 in Rain Light Rain
10:33 AM 70.0 °F - 64.9 °F 84% 29.83 in 4.0 mi Variable 5.8 mph - 0.00 in   Haze
10:50 AM 69.8 °F - 64.4 °F 83% 29.84 in 10.0 mi West 5.8 mph - 0.00 in   Overcast
10:54 AM 71.1 °F - 66.0 °F 84% 29.84 in 10.0 mi WSW 5.8 mph - 0.00 in   Overcast
11:01 AM 71.1 °F - 66.0 °F 84% 29.84 in 10.0 mi SW 5.8 mph - N/A   Overcast
11:24 AM 72.0 °F - 66.0 °F 81% 29.84 in 10.0 mi SW 8.1 mph - N/A   Overcast
11:49 AM 73.4 °F - 66.2 °F 78% 29.84 in 10.0 mi SW 8.1 mph - N/A   Overcast
11:54 AM 73.0 °F - 66.0 °F 79% 29.84 in 10.0 mi SSW 6.9 mph - N/A   Overcast
12:37 PM 73.0 °F - 64.9 °F 76% 29.84 in 8.0 mi West 6.9 mph - N/A   Overcast
12:54 PM 75.0 °F - 64.9 °F 71% 29.83 in 10.0 mi WSW 8.1 mph - N/A   Mostly Cloudy
1:08 PM 73.9 °F - 64.0 °F 71% 29.83 in 10.0 mi SSW 10.4 mph - N/A   Overcast
1:16 PM 73.9 °F - 64.0 °F 71% 29.83 in 10.0 mi SW 9.2 mph - N/A   Overcast
1:54 PM 75.9 °F - 64.9 °F 69% 29.83 in 10.0 mi SW 9.2 mph - N/A   Mostly Cloudy
2:54 PM 78.1 °F - 64.0 °F 62% 29.81 in 10.0 mi SSW 8.1 mph - N/A   Partly Cloudy
3:54 PM 79.0 °F - 64.0 °F 60% 29.81 in 10.0 mi SSW 5.8 mph - N/A   Partly Cloudy
4:54 PM 80.1 °F 81.1 °F 61.0 °F 52% 29.79 in 10.0 mi South 6.9 mph - N/A   Partly Cloudy
5:54 PM 79.0 °F - 63.0 °F 58% 29.79 in 10.0 mi Variable 4.6 mph - N/A   Scattered Clouds
6:54 PM 77.0 °F - 63.0 °F 62% 29.81 in 10.0 mi SSW 10.4 mph 18.4 mph N/A   Mostly Cloudy
7:02 PM 71.1 °F - 62.1 °F 73% 29.84 in 1.8 mi West 17.3 mph 36.8 mph 0.00 in Rain Heavy Rain
7:11 PM 64.9 °F - 60.1 °F 84% 29.85 in 0.5 mi West 15.0 mph 28.8 mph 0.07 in Rain Heavy Rain
7:33 PM 63.0 °F - 59.0 °F 87% 29.86 in 1.0 mi SW 10.4 mph 18.4 mph 0.27 in Rain Heavy Rain
7:51 PM 62.6 °F - 59.0 °F 88% 29.85 in 3.0 mi South 5.8 mph - 0.29 in Rain Light Rain
7:54 PM 63.0 °F - 60.1 °F 90% 29.85 in 9.0 mi Variable 5.8 mph - 0.29 in Rain Light Rain
8:54 PM 64.9 °F - 61.0 °F 87% 29.86 in 10.0 mi Variable 3.5 mph - 0.00 in   Overcast
9:54 PM 64.9 °F - 61.0 °F 87% 29.89 in 10.0 mi WSW 3.5 mph - N/A   Partly Cloudy
10:54 PM 64.0 °F - 61.0 °F 90% 29.91 in 10.0 mi SW 3.5 mph - N/A   Clear
11:54 PM 64.9 °F - 61.0 °F 87% 29.93 in 10.0 mi West 6.9 mph - N/A   Clear